Location: The Saddle
(36.8333°N, 80.3417°W)
Time: 07:58:43
(UTC-05:00)

Tiros 1 - All Passes

Search period start: 04 December 2023 00:00
Search period end: 14 December 2023 00:00
Orbit: 626 x 659 km, 48.4° (Epoch: 03 December)

Date Brightness Start Highest point End Pass type
(mag) Time Alt. Az. Time Alt. Az. Time Alt. Az.
04 Dec - 03:58:54 10° SW 04:03:31 52° SE 04:08:10 10° ENE visible
04 Dec - 05:41:20 10° W 05:45:46 37° NNW 05:50:13 10° NE visible
04 Dec - 07:25:20 10° NW 07:28:53 20° N 07:32:28 10° NE daylight
04 Dec - 09:08:08 10° NW 09:12:12 27° NNE 09:16:14 10° ENE daylight
04 Dec - 10:50:02 10° NW 10:54:50 85° NE 10:59:32 10° SE daylight
04 Dec - 12:33:26 10° W 12:36:25 17° SW 12:39:22 10° S daylight
05 Dec - 02:42:52 10° S 02:46:19 20° SE 02:49:47 10° E night (unlit)
05 Dec - 04:23:15 10° WSW 04:28:01 74° NNW 04:32:49 10° NE visible
05 Dec - 06:06:45 10° WNW 06:10:44 25° NNW 06:14:42 10° NE visible
05 Dec - 07:50:26 10° NW 07:54:03 21° N 07:57:39 10° NE daylight
05 Dec - 09:32:36 10° NW 09:37:07 40° NNE 09:41:36 10° E daylight
05 Dec - 11:14:45 10° WNW 11:19:16 44° SW 11:23:44 10° SSE daylight
06 Dec - 03:06:02 10° SSW 03:10:34 45° SE 03:15:08 10° ENE visible
06 Dec - 04:48:14 10° W 04:52:44 40° NNW 04:57:15 10° NE visible
06 Dec - 06:32:13 10° NW 06:35:49 21° N 06:39:25 10° NE visible
06 Dec - 08:15:09 10° NW 08:19:08 25° NNE 08:23:06 10° ENE daylight
06 Dec - 09:57:02 10° NW 10:01:50 76° NE 10:06:34 10° ESE daylight
06 Dec - 11:40:09 10° W 11:43:31 19° SW 11:46:51 10° S daylight
07 Dec - 01:50:19 10° S 01:53:24 17° SE 01:56:29 10° E night (unlit)
07 Dec - 03:30:16 10° WSW 03:35:01 83° NW 03:39:50 10° NE visible
07 Dec - 05:13:37 10° WNW 05:17:39 26° NNW 05:21:43 10° NE visible
07 Dec - 06:57:23 10° NW 07:00:58 20° N 07:04:32 10° NE daylight
07 Dec - 08:39:37 10° NW 08:44:06 37° NNE 08:48:30 10° E daylight
07 Dec - 10:21:42 10° WNW 10:26:19 51° SW 10:30:53 10° SE daylight
08 Dec - 02:13:12 10° SSW 02:17:36 39° SE 02:22:03 10° ENE night (unlit)
08 Dec - 03:55:09 10° W 03:59:41 44° NNW 04:04:17 10° NE visible
08 Dec - 05:39:04 10° WNW 05:42:43 21° N 05:46:22 10° NE visible
08 Dec - 07:22:09 10° NW 07:26:04 24° NNE 07:29:57 10° ENE daylight
08 Dec - 09:04:03 10° NW 09:08:49 67° NNE 09:13:33 10° ESE daylight
08 Dec - 10:46:54 10° W 10:50:35 22° SW 10:54:14 10° S daylight
09 Dec - 00:57:52 10° SSE 01:00:29 15° SE 01:03:06 10° E night (unlit)
09 Dec - 02:37:16 10° SW 02:42:01 87° SE 02:46:49 10° NE night (unlit)
09 Dec - 04:20:27 10° WNW 04:24:34 28° NNW 04:28:43 10° NE visible
09 Dec - 06:04:18 10° NW 06:07:51 20° N 06:11:24 10° NE visible
09 Dec - 07:46:38 10° NW 07:51:01 34° NNE 07:55:23 10° E daylight
09 Dec - 09:28:38 10° WNW 09:33:20 59° SW 09:37:59 10° SE daylight
10 Dec - 01:20:23 10° SSW 01:24:38 34° SE 01:28:57 10° ENE night (unlit)
10 Dec - 03:02:03 10° WSW 03:06:39 48° NNW 03:11:17 10° NE night (unlit)
10 Dec - 04:45:55 10° WNW 04:49:37 22° N 04:53:19 10° NE visible
10 Dec - 06:29:07 10° NW 06:32:58 23° NNE 06:36:47 10° ENE visible
10 Dec - 08:11:03 10° NW 08:15:47 60° NNE 08:20:30 10° ESE daylight
10 Dec - 09:53:42 10° WNW 09:57:38 26° SW 10:01:32 10° S daylight
11 Dec - 00:05:34 10° SSE 00:07:33 12° SE 00:09:32 10° ESE night (unlit)
11 Dec - 01:44:17 10° SW 01:49:01 77° SE 01:53:47 10° ENE night (unlit)
11 Dec - 03:27:18 10° W 03:31:29 30° NNW 03:35:42 10° NE visible
11 Dec - 05:11:12 10° NW 05:14:43 20° N 05:18:16 10° NE visible
11 Dec - 06:53:38 10° NW 06:57:57 32° NNE 07:02:14 10° E visible
11 Dec - 08:35:35 10° WNW 08:40:20 67° SW 08:45:03 10° SE daylight
11 Dec - 10:20:52 10° WSW 10:21:44 10° SW 10:22:36 10° SW daylight
12 Dec - 00:27:35 10° SSW 00:31:40 30° SE 00:35:47 10° ENE night (unlit)
12 Dec - 02:08:57 10° WSW 02:13:35 53° NNW 02:18:17 10° NE night (unlit)
12 Dec - 03:52:45 10° WNW 03:56:30 22° N 04:00:15 10° NE visible
12 Dec - 05:36:04 10° NW 05:39:50 22° N 05:43:36 10° ENE visible
12 Dec - 07:18:02 10° NW 07:22:44 54° NNE 07:27:24 10° ESE daylight
12 Dec - 09:00:31 10° WNW 09:04:40 30° SW 09:08:47 10° SSE daylight
12 Dec - 23:13:46 10° SE 23:14:36 10° SE 23:15:26 10° ESE night (unlit)
13 Dec - 00:51:18 10° SW 00:55:59 68° SE 01:00:43 10° ENE night (unlit)
13 Dec - 02:34:08 10° W 02:38:23 32° NNW 02:42:40 10° NE night (unlit)
13 Dec - 04:18:04 10° NW 04:21:36 20° N 04:25:08 10° NE visible
13 Dec - 06:00:37 10° NW 06:04:50 30° NNE 06:09:03 10° E visible
13 Dec - 07:42:31 10° WNW 07:47:18 77° SW 07:52:04 10° SE daylight
13 Dec - 09:26:47 10° WSW 09:28:46 13° SW 09:30:46 10° SSW daylight
13 Dec - 23:34:49 10° S 23:38:41 26° SE 23:42:36 10° ENE night (unlit)
